Location: Worth Mountain WMA
(34.9569°N, 81.4819°W)
Time: 12:48:19
(UTC-04:00)

Amateur Radio Satellites - All Passes

Search period start: 18 April 2014 12:18
Search period end: 19 April 2014 12:18
Location: Worth Mountain WMA, 34.9569°N, 81.4819°W

Satellite Date Start Highest point End Downlink Frequencies (MHz)
Time Altitude Azimuth
Saudisat 1A 18 Apr 12:19:11 12:23:34 54° 302° (WNW) 12:27:57 436.775 MHz
FUNcube-1 18 Apr 12:19:40 12:23:49 55° 285° (WNW) 12:28:04 145.950 - 145.970 MHz USB
PANSAT 18 Apr 12:20:14 12:23:38 29° 185° (S) 12:27:01 not established
Oscar 11 18 Apr 12:35:47 12:37:26 12° 294° (WNW) 12:39:05 145.825 FM, Beacon 2401.500 USB
PCSat 18 Apr 12:43:04 12:45:39 14° 257° (WSW) 12:48:13 145.825 MHz
HO-68 18 Apr 12:46:50 12:50:06 14° 304° (WNW) 12:53:22 435.675 MHz FM
Oscar 19 18 Apr 13:05:48 13:08:42 15° 64° (ENE) 13:11:37 437.125 CW, 437.150 USB
Oscar 16 18 Apr 13:13:01 13:16:39 20° 66° (ENE) 13:20:17 437.025 USB, Beacon 2401.1428
RS-15 18 Apr 13:35:23 13:39:30 12° 14° (NNE) 13:43:38 29.354 - 29.394 USB, Beacon 29.352 USB
KITSAT 1 18 Apr 13:36:13 13:44:20 79° 245° (WSW) 13:52:22 435.175 FM
Uribyol 2 18 Apr 13:45:48 13:49:37 21° 67° (ENE) 13:53:26 436.500 FM
PANSAT 18 Apr 14:00:50 14:03:22 17° 197° (SSW) 14:05:55 not established
Gurwin Techsat 1B 18 Apr 14:13:56 14:15:07 11° 62° (ENE) 14:16:18 435.225 FM
AO-27 18 Apr 14:23:59 14:28:58 49° 72° (ENE) 14:33:58 436.795 MHz FM
ITAMSAT 1 18 Apr 14:34:52 14:39:59 63° 74° (ENE) 14:45:06 435.822 SSB
Oscar 19 18 Apr 14:42:30 14:47:32 56° 259° (W) 14:52:36 437.125 CW, 437.150 USB
Oscar 16 18 Apr 14:50:48 14:55:39 42° 261° (W) 15:00:32 437.025 USB, Beacon 2401.1428
AO-Echo 18 Apr 14:53:35 14:58:51 76° 76° (ENE) 15:04:01 ?
ISS 18 Apr 14:59:38 15:01:44 16° 128° (SE) 15:03:50 145.800 FM
TMSAT-1 18 Apr 14:59:43 15:03:43 22° 67° (ENE) 15:07:44 436.925 FM
JAS-1B 18 Apr 15:00:51 15:05:54 19° 64° (ENE) 15:10:28 435.800 - 435.900 CW/SSB
Uosat F 18 Apr 15:16:17 15:16:49 10° 62° (ENE) 15:17:21 435.120 FM
Uribyol 2 18 Apr 15:23:59 15:28:48 39° 261° (W) 15:33:37 436.500 FM
KITSAT 1 18 Apr 15:35:48 15:38:25 12° 261° (W) 15:41:02 435.175 FM
RS-15 18 Apr 15:46:44 15:56:36 36° 47° (NE) 16:06:36 29.354 - 29.394 USB, Beacon 29.352 USB
Gurwin Techsat 1B 18 Apr 15:49:00 15:54:19 84° 257° (WSW) 15:59:39 435.225 FM
AO-7 18 Apr 15:57:16 16:04:19 33° 62° (ENE) 16:11:22 29.400 - 29.500 MHz
OPAL 18 Apr 16:01:55 16:07:06 62° 103° (ESE) 16:12:15 ?
AO-27 18 Apr 16:05:30 16:08:42 17° 267° (W) 16:11:56 436.795 MHz FM
ITAMSAT 1 18 Apr 16:17:36 16:19:50 13° 268° (W) 16:22:04 435.822 SSB
SO-50 18 Apr 16:21:53 16:26:21 86° 119° (ESE) 16:30:52 436.795 FM
ISS 18 Apr 16:35:03 16:38:13 40° 322° (NW) 16:41:24 145.800 FM
AO-Echo 18 Apr 16:37:13 16:38:02 10° 269° (W) 16:38:50 ?
TMSAT-1 18 Apr 16:38:26 16:43:21 39° 262° (W) 16:48:18 436.925 FM
JAS-1B 18 Apr 16:47:25 16:55:59 78° 256° (WSW) 17:03:08 435.800 - 435.900 CW/SSB
Uosat F 18 Apr 16:49:51 16:54:52 82° 257° (WSW) 16:59:55 435.120 FM
UOSAT-12 18 Apr 17:13:32 17:15:37 13° 107° (ESE) 17:17:43 437.025 FM, 437.400 FM
OPAL 18 Apr 17:42:35 17:45:25 15° 298° (WNW) 17:48:16 ?
AO-7 18 Apr 17:48:45 17:56:43 51° 258° (WSW) 18:04:44 29.400 - 29.500 MHz
RS-15 18 Apr 17:58:44 18:09:28 63° 248° (WSW) 18:20:33 29.354 - 29.394 USB, Beacon 29.352 USB
SO-50 18 Apr 18:06:28 18:07:32 11° 316° (NW) 18:08:36 436.795 FM
Hamsat 18 Apr 18:40:54 18:44:57 51° 75° (ENE) 18:49:03 145.90 MHz
JAS-1B 18 Apr 18:44:59 18:46:57 11° 268° (W) 18:48:51 435.800 - 435.900 CW/SSB
UOSAT-12 18 Apr 18:50:48 18:55:14 54° 302° (WNW) 18:59:47 437.025 FM, 437.400 FM
SO-67 18 Apr 19:12:30 19:14:45 16° 71° (ENE) 19:17:01 435.3500 MHz FM
JAS-2 18 Apr 19:33:36 19:39:34 62° 74° (ENE) 19:44:56 435.800 - 435.900 CW/SSB, 435.910 FM
STRAND 1 18 Apr 20:17:09 20:22:15 81° 284° (WNW) 20:27:20 ?
Hamsat 18 Apr 20:20:39 20:21:13 10° 269° (W) 20:21:46 145.90 MHz
SO-67 18 Apr 20:44:59 20:47:43 22° 264° (W) 20:50:29 435.3500 MHz FM
Saudisat 1A 18 Apr 20:49:13 20:53:26 44° 57° (ENE) 20:57:36 436.775 MHz
HO-68 18 Apr 21:20:57 21:27:49 54° 69° (ENE) 21:34:44 435.675 MHz FM
JAS-2 18 Apr 21:21:47 21:24:52 14° 266° (W) 21:27:49 435.800 - 435.900 CW/SSB, 435.910 FM
Oscar 11 18 Apr 21:49:49 21:53:26 27° 71° (ENE) 21:57:05 145.825 FM, Beacon 2401.500 USB
MaSat-1 18 Apr 22:07:56 22:11:04 62° 112° (ESE) 22:13:47 437.345 MHz
Saudisat 1A 18 Apr 22:30:09 22:32:38 15° 251° (WSW) 22:35:06 436.775 MHz
ISS 18 Apr 23:06:25 23:09:42 49° 39° (NE) 23:12:57 145.800 FM
HO-68 18 Apr 23:10:12 23:15:46 24° 265° (W) 23:21:23 435.675 MHz FM
FUNcube-1 18 Apr 23:12:56 23:17:10 77° 77° (ENE) 23:21:21 145.950 - 145.970 MHz USB
Oscar 11 18 Apr 23:26:20 23:29:35 21° 265° (W) 23:32:51 145.825 FM, Beacon 2401.500 USB
PCSat 18 Apr 23:56:03 23:58:21 13° 103° (ESE) 00:00:40 145.825 MHz
ISS 19 Apr 00:44:32 00:46:06 13° 233° (SW) 00:47:39 145.800 FM
Sapphire 19 Apr 00:51:08 00:56:12 43° 110° (ESE) 01:01:18 437.095 MHz 1200 baud AX-25 AFSK
SO-50 19 Apr 00:56:53 01:01:03 31° 54° (NE) 01:05:15 436.795 FM
PCSat 19 Apr 01:35:44 01:41:06 69° 297° (WNW) 01:46:31 145.825 MHz
KITSAT 1 19 Apr 02:08:01 02:13:37 21° 103° (ESE) 02:19:14 435.175 FM
Oscar 10/S400 19 Apr 02:25:34 02:42:19 30° 136° (SE) 03:17:45 145.825 - 145.975 CW/USB, Beacon 145.810 USB
Sapphire 19 Apr 02:35:29 02:39:46 24° 307° (NW) 02:44:05 437.095 MHz 1200 baud AX-25 AFSK
SO-50 19 Apr 02:37:40 02:41:28 25° 249° (WSW) 02:45:18 436.795 FM
AO-27 19 Apr 02:41:03 02:45:08 23° 96° (E) 02:49:11 436.795 MHz FM
ITAMSAT 1 19 Apr 02:51:37 02:56:05 29° 97° (E) 03:00:32 435.822 SSB
Oscar 19 19 Apr 02:57:21 03:02:33 69° 102° (ESE) 03:07:43 437.125 CW, 437.150 USB
AO-Echo 19 Apr 03:05:03 03:09:13 30° 97° (E) 03:13:18 ?
Oscar 16 19 Apr 03:05:30 03:10:44 88° 103° (ESE) 03:15:56 437.025 USB, Beacon 2401.1428
OPAL 19 Apr 03:13:43 03:18:42 76° 73° (ENE) 03:23:47 ?
TMSAT-1 19 Apr 03:21:11 03:22:08 10° 91° (E) 03:23:05 436.925 FM
UOSAT-12 19 Apr 03:23:27 03:28:03 50° 57° (ENE) 03:32:36 437.025 FM, 437.400 FM
Uribyol 2 19 Apr 03:39:38 03:44:50 85° 284° (WNW) 03:50:01 436.500 FM
KITSAT 1 19 Apr 04:00:06 04:08:11 72° 299° (WNW) 04:16:19 435.175 FM
Gurwin Techsat 1B 19 Apr 04:08:45 04:13:56 52° 100° (E) 04:19:04 435.225 FM
AO-27 19 Apr 04:20:00 04:24:40 35° 290° (WNW) 04:29:19 436.795 MHz FM
ITAMSAT 1 19 Apr 04:31:05 04:35:28 28° 291° (WNW) 04:39:49 435.822 SSB
JAS-1B 19 Apr 04:36:58 04:41:54 30° 98° (E) 04:47:03 435.800 - 435.900 CW/SSB
Oscar 19 19 Apr 04:38:58 04:41:15 13° 297° (WNW) 04:43:33 437.125 CW, 437.150 USB
AO-Echo 19 Apr 04:44:06 04:47:49 23° 292° (WNW) 04:51:29 ?
TMSAT-1 19 Apr 04:57:15 05:02:32 75° 285° (WNW) 05:07:48 436.925 FM
Uosat F 19 Apr 05:01:11 05:05:53 40° 99° (E) 05:10:33 435.120 FM
UOSAT-12 19 Apr 05:05:06 05:07:45 15° 252° (WSW) 05:10:22 437.025 FM, 437.400 FM
Gurwin Techsat 1B 19 Apr 05:50:03 05:53:26 18° 295° (WNW) 05:56:49 435.225 FM
AO-7 19 Apr 05:53:33 06:01:52 70° 105° (ESE) 06:10:09 29.400 - 29.500 MHz
STRAND 1 19 Apr 05:55:11 05:56:23 11° 62° (ENE) 05:57:35 ?
KITSAT 1 19 Apr 06:00:16 06:05:04 16° 320° (NW) 06:09:53 435.175 FM
RS-15 19 Apr 06:07:43 06:16:49 29° 104° (ESE) 06:25:37 29.354 - 29.394 USB, Beacon 29.352 USB
JAS-1B 19 Apr 06:27:44 06:32:32 29° 292° (WNW) 06:37:30 435.800 - 435.900 CW/SSB
Hamsat 19 Apr 06:31:59 06:33:49 12° 92° (E) 06:35:38 145.90 MHz
Uosat F 19 Apr 06:40:47 06:44:21 20° 294° (WNW) 06:47:55 435.120 FM
STRAND 1 19 Apr 07:29:45 07:34:52 80° 257° (WSW) 07:40:00 ?
AO-7 19 Apr 07:47:39 07:53:54 25° 302° (WNW) 08:00:09 29.400 - 29.500 MHz
Hamsat 19 Apr 08:05:49 08:10:00 47° 286° (WNW) 08:14:10 145.90 MHz
MaSat-1 19 Apr 08:12:00 08:15:06 84° 248° (WSW) 08:18:50 437.345 MHz
SO-67 19 Apr 08:12:12 08:15:20 30° 97° (E) 08:18:26 435.3500 MHz FM
RS-15 19 Apr 08:16:55 08:28:15 69° 302° (WNW) 08:39:14 29.354 - 29.394 USB, Beacon 29.352 USB
JAS-2 19 Apr 08:29:47 08:35:15 74° 103° (ESE) 08:41:19 435.800 - 435.900 CW/SSB, 435.910 FM
PANSAT 19 Apr 08:37:31 08:39:39 14° 161° (SSE) 08:41:47 not established
Sapphire 19 Apr 09:43:08 09:46:56 19° 51° (NE) 09:50:42 437.095 MHz 1200 baud AX-25 AFSK
SO-67 19 Apr 09:46:43 09:48:10 12° 291° (WNW) 09:49:36 435.3500 MHz FM
PANSAT 19 Apr 10:16:01 10:19:22 28° 173° (S) 10:22:42 not established
JAS-2 19 Apr 10:17:34 10:19:51 13° 296° (WNW) 10:22:13 435.800 - 435.900 CW/SSB, 435.910 FM
PCSat 19 Apr 10:27:05 10:32:19 47° 60° (ENE) 10:37:30 145.825 MHz
RS-15 19 Apr 10:35:30 10:43:03 20° 328° (NNW) 10:50:33 29.354 - 29.394 USB, Beacon 29.352 USB
HO-68 19 Apr 10:39:25 10:46:38 77° 104° (ESE) 10:53:48 435.675 MHz FM
Saudisat 1A 19 Apr 10:53:14 10:56:54 26° 112° (ESE) 11:00:35 436.775 MHz
FUNcube-1 19 Apr 11:06:16 11:09:19 19° 95° (E) 11:12:24 145.950 - 145.970 MHz USB
Oscar 11 19 Apr 11:16:01 11:20:24 89° 103° (ESE) 11:24:46 145.825 FM, Beacon 2401.500 USB
Sapphire 19 Apr 11:25:25 11:30:42 56° 248° (WSW) 11:35:58 437.095 MHz 1200 baud AX-25 AFSK
PANSAT 19 Apr 11:55:48 11:59:12 29° 186° (S) 12:02:34 not established
KITSAT 1 19 Apr 11:57:30 12:04:39 33° 51° (NE) 12:11:44 435.175 FM
